User: anonymous
Location: Trondheim
(63.4170°N, 10.4170°E)
Time: 14:59:58
(UTC+02:00)
Language:

Iridium 82 - Orbit

View from above orbital plane
View from above orbital plane
View from above satellite
View from above satellite

Ground track
Ground track

The orbit data is extracted from the following two-line orbital elements,

1 25467U 98051A   14204.32016553  .00000268  00000-0  88562-4 0  9891
2 25467 086.3986 105.1174 0002490 102.9990 257.1484 14.34214416834703
Epoch (UTC): 23 July 2014 07:41:02
Eccentricity: 0.0002490
inclination: 86.3986°
perigee height: 776 km
apogee height: 779 km
right ascension of ascending node: 105.1174°
argument of perigee: 102.9990°
revolutions per day: 14.34214416
mean anomaly at epoch: 257.1484°
orbit number at epoch: 83470

The dashed part of the orbit path shows where the satellite is in the earth's shadow,  

DLR